sat.trackr.live / text

‹ back to catalog

STARLINK-33972

NORAD 63893 · 2025-095D

PAYLOAD ACTIVE UNKNOWN

§ Identity

Operator
Country
US
Launch date
2025-05-10
Launch site
AFETR
Launch vehicle
Mass (kg)
RCS (m²)

Purposes: comms

External: N2YO · Heavens-Above · Gunter

§ Orbital elements

Epoch: 2026-09-20T23:26:04.282080Z

Period
94.27 min
Inclination
42.9987°
Eccentricity
0.0001219
Mean motion
15.27595362 rev/d
Perigee alt
482.2 km
Apogee alt
483.8 km
Semi-major
6,861.1 km
B*
3.3621e-4
RAAN
153.4036°
Arg perigee
268.7668°
Mean anomaly
91.3044°
Rev number
7,765

§ Raw data

STARLINK-339721 63893U 25095D   26263.97643845  .00009005  00000+0  33621-3 0  99962 63893  42.9987 153.4036 0001219 268.7668  91.3044 15.27595362 77659

JSON: /api/v1/satellites/63893 · /tle

For live sub-satellite position, see the globe view (requires WebGL).

§ Visibility from observer

Set your observer location to see the next 7 days of passes ≥ 10°. The values pass through the URL so the page stays shareable.

No JS? Fill the form by hand. The geolocation button needs JavaScript.